Weather History for KUIL - June, 2013

Change the Weather History Date:

Monday, June 3, 2013

  Actual Average Record
Temperature  
Mean Temperature 55 °F 54 °F  
Max Temperature 63 °F 62 °F 89 °F (1989)
Min Temperature 47 °F 46 °F 35 °F (1976)
Degree Days  
Heating Degree Days 10 11  
Month to date heating degree days 21 34  
Since 1 June heating degree days 21 34  
Since 1 July heating degree days 5090 5502  
Cooling Degree Days 0 0  
Month to date cooling degree days 0 0  
Year to date cooling degree days 3 1  
Since 1 June cooling degree days 0 0  
Growing Degree Days 7 (Base 50)    
Moisture  
Dew Point 48 °F    
Average Humidity 72    
Maximum Humidity 83    
Minimum Humidity 60    
Precipitation  
Precipitation 0.00 in 0.15 in 1.53 in (1990)
Month to date precipitation T 0.44  
Year to date precipitation 55.90 49.19  
Sea Level Pressure  
Sea Level Pressure 30.13 in    
Wind  
Wind Speed 5 mph (WSW)    
Max Wind Speed 14 mph    
Max Gust Speed 17 mph    
Visibility 6 miles    
Events      
T = Trace of Precipitation, MM = Missing Value Source: NWS Daily Summary

Daily Weather History Graph

Daily Weather History Graph

Search for Another Location

Airport or City:

Trip Planner

Search our weather history database for the weather conditions in past years. The results will help you decide how hot, cold, wet, or windy it might be!

Date:

Astronomy

Jun. 03, 2013 Rise Set
Actual Time 5:21 AM PDT 9:11 PM PDT
Civil Twilight 4:41 AM PDT 9:51 PM PDT
Nautical Twilight 3:47 AM PDT 10:46 PM PDT
Astronomical Twilight 2:25 AM PDT 12:09 AM PDT
Moon 2:42 AM PDT (6/3) 4:31 PM PDT (6/3)
Length of Visible Light 17h 09m
Length of Day
15h 49m
Waning Crescent, 21% of the Moon is Illuminated
Jun 3
Waning Crescent
Jun 8
New
Jun 16
First Quarter
Jun 23
Full
Jun 29
Last Quarter

Hourly Weather History & Observations

Time (PDT) Temp. Dew Point Humidity Pressure Visibility Wind Dir Wind Speed Gust Speed Precip Events Conditions
12:53 AM 54.0 °F 48.0 °F 80% 30.12 in 6.0 mi Calm Calm - N/A   Haze
1:53 AM 54.0 °F 46.9 °F 77% 30.12 in 6.0 mi West 3.5 mph - N/A   Haze
2:50 AM 53.6 °F 48.2 °F 82% 30.11 in 6.0 mi Calm Calm - N/A   Haze
2:53 AM 54.0 °F 48.0 °F 80% 30.11 in 6.0 mi Calm Calm - N/A   Haze
3:53 AM 54.0 °F 48.0 °F 80% 30.11 in 6.0 mi Calm Calm - N/A   Haze
4:53 AM 54.0 °F 48.0 °F 80% 30.10 in 6.0 mi SE 3.5 mph - N/A   Haze
5:53 AM 54.0 °F 48.0 °F 80% 30.11 in 4.0 mi Calm Calm - N/A   Haze
6:08 AM 53.6 °F 48.2 °F 82% 30.11 in 4.0 mi Calm Calm - N/A   Haze
6:53 AM 54.0 °F 48.9 °F 83% 30.11 in 4.0 mi SE 3.5 mph - N/A   Haze
7:53 AM 55.0 °F 48.9 °F 80% 30.12 in 4.0 mi SE 3.5 mph - N/A   Haze
8:53 AM 55.9 °F 48.0 °F 75% 30.13 in 5.0 mi SW 4.6 mph - N/A   Haze
9:11 AM 57.2 °F 48.2 °F 72% 30.14 in 6.0 mi West 5.8 mph - N/A   Haze
9:53 AM 57.0 °F 48.0 °F 72% 30.14 in 5.0 mi WSW 8.1 mph - N/A   Haze
10:53 AM 59.0 °F 48.0 °F 67% 30.14 in 6.0 mi West 3.5 mph - N/A   Haze
11:53 AM 61.0 °F 48.9 °F 64% 30.14 in 6.0 mi West 10.4 mph - N/A   Haze
12:29 PM 60.8 °F 48.2 °F 63% 30.14 in 7.0 mi WSW 9.2 mph - N/A   Scattered Clouds
12:53 PM 61.0 °F 48.0 °F 62% 30.14 in 7.0 mi WSW 11.5 mph - N/A   Partly Cloudy
1:53 PM 62.1 °F 48.0 °F 60% 30.15 in 7.0 mi SW 11.5 mph - N/A   Clear
2:53 PM 61.0 °F 48.0 °F 62% 30.14 in 7.0 mi WSW 8.1 mph - N/A   Clear
3:53 PM 61.0 °F 48.0 °F 62% 30.14 in 7.0 mi West 9.2 mph - N/A   Clear
4:53 PM 61.0 °F 48.9 °F 64% 30.14 in 7.0 mi WSW 9.2 mph - N/A   Clear
5:53 PM 60.1 °F 48.9 °F 67% 30.14 in 6.0 mi WSW 10.4 mph - N/A   Haze
6:53 PM 59.0 °F 48.9 °F 69% 30.13 in 6.0 mi WSW 4.6 mph - N/A   Haze
7:46 PM 55.4 °F 48.2 °F 77% 30.13 in 6.0 mi WNW 4.6 mph - N/A   Haze
7:53 PM 55.9 °F 48.0 °F 75% 30.14 in 6.0 mi NW 6.9 mph - N/A   Haze
8:53 PM 55.9 °F 48.0 °F 75% 30.14 in 6.0 mi NNW 6.9 mph - N/A   Haze
9:40 PM 53.6 °F 46.4 °F 77% 30.14 in 7.0 mi NW 4.6 mph - N/A   Partly Cloudy
9:53 PM 53.1 °F 46.9 °F 80% 30.14 in 7.0 mi Calm Calm - N/A   Clear
10:53 PM 51.1 °F 45.0 °F 80% 30.14 in 6.0 mi Calm Calm - N/A   Haze
11:53 PM 50.0 °F 45.0 °F 83% 30.14 in 5.0 mi Calm Calm - N/A   Haze